Volver al catálogo

STARLINK-5646

ActivoComunicacionesVLEO
NORAD 55461·PAYLOAD·🇺🇸 United States

Lanzado Feb 2, 2023 desde Cape Canaveral Space Force Station

Loading…

Próximos Pases (próximas 24 horas)

TLE

ActualizadoSource: CelesTrak SupGP

Época: Sep 15, 2026, 01:57 UTC

1 55461C 23015N   26258.08173611  .00018713  00000+0  67808-3 0  2581
2 55461  43.0021 339.1457 0001596 264.6217 216.3953 15.27555328    17

Sigue STARLINK-5646 en tiempo real con AllMySat

Download on the App Store